• In France
  • List of Countries
  • For 7 days
  • Water Temperature
  • Satellite Maps
  • Weather Map
  • Weather Widgets
  • user-avatar
    Login

    Hourly Weather Satif

    Today, 22 September, Saturday

    Time Temperature Precipitation Wind Pressure Humidity
    00:00 +18°C° 0 mm 2 mps 676 mmHg 70%
    01:00 +18°C° 0 mm 2 mps 676 mmHg 72%
    02:00 +18°C° 0 mm 1 mps 676 mmHg 73%
    03:00 +18°C° 0 mm 1 mps 675 mmHg 74%
    04:00 +18°C° 0 mm 1 mps 676 mmHg 75%
    05:00 +18°C° 0 mm 1 mps 676 mmHg 75%
    06:00 +18°C° 0 mm 1 mps 676 mmHg 75%
    07:00 +18°C° 0 mm 2 mps 677 mmHg 68%
    08:00 +20°C° 0 mm 2 mps 677 mmHg 60%
    09:00 +21°C° 0 mm 2 mps 678 mmHg 53%
    10:00 +22°C° 0 mm 3 mps 678 mmHg 47%
    11:00 +24°C° 0 mm 3 mps 678 mmHg 41%
    12:00 +26°C° 0 mm 3 mps 678 mmHg 35%
    13:00 +26°C° 0 mm 4 mps 678 mmHg 36%
    14:00 +26°C° 0 mm 4 mps 678 mmHg 36%
    15:00 +26°C° 0 mm 4 mps 678 mmHg 36%
    16:00 +25°C° 0 mm 4 mps 678 mmHg 41%
    17:00 +24°C° 0 mm 3 mps 678 mmHg 46%
    18:00 +22°C° 0 mm 3 mps 677 mmHg 51%
    19:00 +23°C° 0 mm 2 mps 678 mmHg 54%
    20:00 +21°C° 0 mm 2 mps 678 mmHg 57%
    21:00 +22°C° 0 mm 1 mps 678 mmHg 61%
    22:00 +21°C° 0 mm 1 mps 678 mmHg 62%
    23:00 +21°C° 0 mm 1 mps 678 mmHg 63%

    Tomorrow, 23 September, Sunday

    Time Temperature Precipitation Wind Pressure Humidity
    00:00 +20°C° 0 mm 1 mps 678 mmHg 64%
    01:00 +20°C° 0 mm 1 mps 678 mmHg 65%
    02:00 +20°C° 0 mm 1 mps 677 mmHg 65%
    03:00 +19°C° 0 mm 1 mps 677 mmHg 65%
    04:00 +17°C° 0 mm 0 mps 677 mmHg 65%
    05:00 +17°C° 0 mm 0 mps 677 mmHg 65%
    06:00 +17°C° 0 mm 0 mps 677 mmHg 65%
    07:00 +19°C° 0 mm 0 mps 678 mmHg 57%
    08:00 +20°C° 0 mm 0 mps 678 mmHg 50%
    09:00 +21°C° 0 mm 0 mps 679 mmHg 43%
    10:00 +24°C° 0 mm 1 mps 679 mmHg 40%
    11:00 +25°C° 0 mm 1 mps 679 mmHg 37%
    12:00 +26°C° 0 mm 1 mps 679 mmHg 34%
    13:00 +26°C° 0 mm 1 mps 679 mmHg 34%
    14:00 +27°C° 0 mm 2 mps 678 mmHg 33%
    15:00 +27°C° 0 mm 2 mps 678 mmHg 33%
    16:00 +26°C° 0 mm 2 mps 678 mmHg 38%
    17:00 +25°C° 0 mm 2 mps 678 mmHg 42%
    18:00 +25°C° 0 mm 2 mps 677 mmHg 46%
    19:00 +24°C° 0 mm 2 mps 678 mmHg 50%
    20:00 +23°C° 0 mm 1 mps 678 mmHg 54%
    21:00 +23°C° 0 mm 1 mps 678 mmHg 58%
    22:00 +22°C° 0 mm 1 mps 678 mmHg 60%
    23:00 +22°C° 0 mm 1 mps 677 mmHg 62%

    Day after tomorrow, 24 September, Monday

    Time Temperature Precipitation Wind Pressure Humidity
    00:00 +22°C° 0 mm 1 mps 677 mmHg 64%
    01:00 +21°C° 0 mm 1 mps 677 mmHg 65%
    02:00 +21°C° 0 mm 1 mps 676 mmHg 67%
    03:00 +19°C° 0 mm 0 mps 676 mmHg 68%
    04:00 +19°C° 0 mm 0 mps 676 mmHg 68%
    05:00 +20°C° 0 mm 1 mps 676 mmHg 67%
    06:00 +20°C° 0 mm 1 mps 676 mmHg 67%
    07:00 +22°C° 0 mm 1 mps 677 mmHg 59%
    08:00 +23°C° 0 mm 1 mps 677 mmHg 51%
    09:00 +25°C° 0 mm 1 mps 678 mmHg 44%
    10:00 +25°C° 0 mm 1 mps 678 mmHg 40%
    11:00 +26°C° 0 mm 1 mps 678 mmHg 37%
    12:00 +27°C° 0 mm 2 mps 678 mmHg 33%
    13:00 +27°C° 0 mm 2 mps 678 mmHg 34%
    14:00 +27°C° 0 mm 2 mps 677 mmHg 35%
    15:00 +27°C° 0 mm 2 mps 677 mmHg 36%
    16:00 +26°C° 0 mm 3 mps 677 mmHg 41%
    17:00 +25°C° 0 mm 3 mps 677 mmHg 47%
    18:00 +24°C° 0 mm 3 mps 676 mmHg 52%
    19:00 +24°C° 0 mm 3 mps 676 mmHg 56%
    20:00 +23°C° 0 mm 2 mps 677 mmHg 61%
    21:00 +23°C° 0 mm 2 mps 677 mmHg 65%
    22:00 +21°C° 0 mm 2 mps 677 mmHg 67%
    23:00 +21°C° 0 mm 2 mps 676 mmHg 69%

    25 September, Tuesday

    Time Temperature Precipitation Wind Pressure Humidity
    00:00 +21°C° 0 mm 1 mps 676 mmHg 72%
    01:00 +21°C° 0 mm 1 mps 676 mmHg 73%
    02:00 +21°C° 0 mm 1 mps 676 mmHg 75%
    03:00 +20°C° 0 mm 1 mps 676 mmHg 76%
    04:00 +20°C° 0 mm 1 mps 676 mmHg 77%
    05:00 +20°C° 0 mm 1 mps 676 mmHg 78%
    06:00 +20°C° 0 mm 1 mps 676 mmHg 78%
    07:00 +21°C° 0 mm 1 mps 676 mmHg 71%
    08:00 +22°C° 0 mm 1 mps 677 mmHg 63%
    09:00 +24°C° 0 mm 1 mps 678 mmHg 56%
    10:00 +25°C° 0.6 mm 1 mps 678 mmHg 52%
    11:00 +26°C° 0.6 mm 2 mps 678 mmHg 48%
    12:00 +26°C° 0.6 mm 2 mps 678 mmHg 44%
    13:00 +26°C° 0.7 mm 2 mps 677 mmHg 45%
    14:00 +26°C° 0.7 mm 2 mps 677 mmHg 46%
    15:00 +26°C° 0.7 mm 2 mps 677 mmHg 48%
    16:00 +25°C° 0.3 mm 2 mps 677 mmHg 53%
    17:00 +24°C° 0.3 mm 3 mps 677 mmHg 57%
    18:00 +22°C° 0.3 mm 3 mps 677 mmHg 62%
    19:00 +23°C° 0.2 mm 2 mps 677 mmHg 65%
    20:00 +21°C° 0.2 mm 2 mps 677 mmHg 68%
    21:00 +20°C° 0.2 mm 2 mps 677 mmHg 71%
    22:00 +20°C° 0.3 mm 2 mps 677 mmHg 71%
    23:00 +21°C° 0.3 mm 1 mps 677 mmHg 71%

    26 September, Wednesday

    Time Temperature Precipitation Wind Pressure Humidity
    00:00 +21°C° 0.3 mm 1 mps 677 mmHg 71%
    01:00 +21°C° 0.1 mm 1 mps 677 mmHg 72%
    02:00 +20°C° 0.1 mm 1 mps 676 mmHg 74%
    03:00 +20°C° 0.1 mm 1 mps 676 mmHg 75%
    04:00 +20°C° 0.2 mm 1 mps 676 mmHg 76%
    05:00 +20°C° 0.2 mm 1 mps 676 mmHg 77%
    06:00 +19°C° 0.2 mm 1 mps 677 mmHg 78%
    07:00 +20°C° 0.1 mm 1 mps 677 mmHg 72%
    08:00 +21°C° 0.1 mm 1 mps 678 mmHg 67%
    09:00 +21°C° 0.1 mm 2 mps 678 mmHg 61%
    10:00 +23°C° 0.6 mm 2 mps 678 mmHg 57%
    11:00 +24°C° 0.6 mm 2 mps 678 mmHg 53%
    12:00 +25°C° 0.6 mm 2 mps 678 mmHg 50%
    13:00 +25°C° 0.8 mm 2 mps 678 mmHg 50%
    14:00 +25°C° 0.8 mm 2 mps 678 mmHg 50%
    15:00 +25°C° 0.8 mm 2 mps 678 mmHg 50%
    16:00 +24°C° 0.7 mm 2 mps 678 mmHg 54%
    17:00 +24°C° 0.7 mm 2 mps 678 mmHg 57%
    18:00 +22°C° 0.7 mm 3 mps 678 mmHg 61%
    19:00 +23°C° 0.4 mm 2 mps 678 mmHg 62%
    20:00 +23°C° 0.4 mm 2 mps 678 mmHg 63%
    21:00 +21°C° 0.4 mm 2 mps 678 mmHg 64%
    22:00 +21°C° 0.5 mm 2 mps 678 mmHg 64%
    23:00 +22°C° 0.5 mm 1 mps 678 mmHg 65%

    27 September, Thursday

    Time Temperature Precipitation Wind Pressure Humidity
    00:00 +22°C° 0.5 mm 1 mps 677 mmHg 66%
    01:00 +21°C° 0.3 mm 1 mps 677 mmHg 67%
    02:00 +21°C° 0.3 mm 1 mps 677 mmHg 68%
    03:00 +21°C° 0.3 mm 1 mps 677 mmHg 69%
    04:00 +21°C° 0.2 mm 1 mps 677 mmHg 70%
    05:00 +20°C° 0.2 mm 1 mps 677 mmHg 71%
    06:00 +20°C° 0.2 mm 1 mps 677 mmHg 72%
    07:00 +21°C° 0.2 mm 1 mps 678 mmHg 66%
    08:00 +22°C° 0.2 mm 1 mps 678 mmHg 60%
    09:00 +23°C° 0.2 mm 1 mps 679 mmHg 53%
    10:00 +24°C° 0.4 mm 1 mps 679 mmHg 50%
    11:00 +25°C° 0.4 mm 1 mps 679 mmHg 46%
    12:00 +26°C° 0.4 mm 1 mps 679 mmHg 42%
    13:00 +26°C° 0.6 mm 2 mps 678 mmHg 42%
    14:00 +26°C° 0.6 mm 2 mps 678 mmHg 42%
    15:00 +26°C° 0.6 mm 2 mps 678 mmHg 42%
    16:00 +25°C° 0.5 mm 2 mps 677 mmHg 45%
    17:00 +25°C° 0.5 mm 2 mps 677 mmHg 48%
    18:00 +24°C° 0.5 mm 2 mps 677 mmHg 51%
    19:00 +24°C° 0.4 mm 1 mps 677 mmHg 54%
    20:00 +23°C° 0.4 mm 1 mps 677 mmHg 57%
    21:00 +23°C° 0.4 mm 1 mps 677 mmHg 60%
    22:00 +22°C° 0.2 mm 1 mps 677 mmHg 61%
    23:00 +22°C° 0.2 mm 1 mps 677 mmHg 63%
    Show more